Terminal Aerodrome Forecast
Issued by NWS Amarillo, TX

Home | Current Version | Previous Version | Text Only | Print | Product List | Glossary On
Versions: 1 2 3 4 5 6 7 8 9 10 11 12 13 14 15 16 17 18 19 20
000
FTUS44 KAMA 291000 AAA
TAFDHT
TAF AMD
KDHT 291018Z 2910/3006 17007KT P6SM BKN025
     FM291300 17007KT P6SM VCTS SCT035CB BKN070
     FM291600 18013G22KT P6SM SCT035 BKN300
     FM300000 17013KT P6SM VCTS SCT035CB BKN300=

USA.gov is the U.S. government's official web portal to all federal, state and local government web resources and services.